This is the latest recevied weather packets stored in our database for station/object KG0HG. If no packets are shown the sender has not sent any weather packets the latest 10 day(s).
| Time | Temp. | Humidity | Pressure | Rain* | Wind** | Luminosity | Snow |
|---|---|---|---|---|---|---|---|
| 1778095761 | 13.89° C | 33% | 1018.7 hPa | 0 mm | - | 727 W/m² | - |
| 1778095458 | 14.44° C | 33% | 1018.9 hPa | 0 mm | - | 733 W/m² | - |
| 1778095155 | 13.89° C | 32% | 1019 hPa | 0 mm | - | 739 W/m² | - |
| 1778094851 | 13.89° C | 35% | 1018.9 hPa | 0 mm | - | 734 W/m² | - |
| 1778094548 | 14.44° C | 33% | 1019 hPa | 0 mm | - | 736 W/m² | - |
| 1778094245 | 13.89° C | 35% | 1019 hPa | 0 mm | - | 737 W/m² | - |
| 1778093942 | 13.89° C | 33% | 1018.9 hPa | 0 mm | - | 743 W/m² | - |
| 1778093639 | 13.89° C | 36% | 1019 hPa | 0 mm | - | 740 W/m² | - |
| 1778093336 | 13.33° C | 36% | 1019.1 hPa | 0 mm | - | 640 W/m² | - |
| 1778093033 | 12.78° C | 37% | 1019 hPa | 0 mm | - | 354 W/m² | - |
| 1778092730 | 12.78° C | 35% | 1019.2 hPa | 0 mm | - | 476 W/m² | - |
| 1778092425 | 13.33° C | 36% | 1019.2 hPa | 0 mm | - | 435 W/m² | - |
| 1778092123 | 12.78° C | 35% | 1019.4 hPa | 0 mm | - | 464 W/m² | - |
| 1778091820 | 13.33° C | 39% | 1019.3 hPa | 0 mm | - | 175 W/m² | - |
| 1778091517 | 12.78° C | 39% | 1019.2 hPa | 0 mm | - | 163 W/m² | - |
| 1778091215 | 12.78° C | 37% | 1019.5 hPa | 0 mm | - | 154 W/m² | - |
| 1778090912 | 12.78° C | 36% | 1019.3 hPa | 0 mm | - | 148 W/m² | - |
| 1778090608 | 12.78° C | 38% | 1019.4 hPa | 0 mm | - | 144 W/m² | - |
| 1778090304 | 12.78° C | 39% | 1019.5 hPa | 0 mm | - | 154 W/m² | - |
| 1778090001 | 12.78° C | 36% | 1019.4 hPa | 0 mm | - | 137 W/m² | - |
| 1778089699 | 12.78° C | 38% | 1019.3 hPa | 0 mm | - | 138 W/m² | - |
| 1778089396 | 12.78° C | 37% | 1019.5 hPa | 0 mm | - | 153 W/m² | - |
| 1778089093 | 12.78° C | 39% | 1019.5 hPa | 0 mm | - | 142 W/m² | - |
| 1778088790 | 12.78° C | 38% | 1019.4 hPa | 0 mm | - | 158 W/m² | - |
| 1778088487 | 13.33° C | 38% | 1019.4 hPa | 0 mm | - | 146 W/m² | - |
* Rain latest hour (hover to see other rain measurements)
** Current wind speed in m/s (hover to see current wind gust speed)